#timestamp,LO_Frequency,Hit 
1504879215.4,286047000.9,N
1504879235.3,286047000.2,N
1504879255.1,286047000.4,N
1504879275.8,286047001.5,N
1504879295.7,286047005.2,N
1504879315.5,286047007.8,P
1504879335.3,286047003.1,N
1504879355.2,286047003.4,N
1504879375.0,286047005.1,N
1504879375.9,286047005.1,N
1504879395.7,286047003.7,N
1504879415.6,286047004.7,N
1504879435.4,286047004.7,N
1504879455.2,286047002.2,N
1504879475.1,286047002.0,N
1504879476.0,286047002.0,N
1504879495.8,286046999.8,N
1504879515.6,286047003.3,N
1504879535.5,286047004.3,N
1504879555.3,286047004.0,N
1504879575.1,286047003.1,N
1504879595.9,286047003.8,N
1504879615.7,286047004.2,N
1504879635.5,286047001.3,N
1504879655.4,286047003.9,N
1504879675.2,286047001.5,N
1504879695.0,286047003.8,N
1504879695.9,286047003.8,N
1504879715.7,286047002.8,N
1504879735.6,286046997.3,N
1504879755.4,286047000.7,N
1504879775.2,286047000.6,N
1504879795.1,286046998.8,N
1504879796.0,286046998.8,N
1504879815.8,286047000.3,N
1504879835.6,286047001.7,N
1504879855.5,286046999.3,N
1504879875.3,286047000.6,N
1504879895.1,286047001.4,N
1504879915.9,286047005.6,N
1504879935.7,286047005.5,N
1504879955.5,286047004.8,N
1504879975.4,286047010.6,P
1504879995.2,286047006.8,N
1504880015.0,286047006.5,N
1504880015.9,286047006.5,N
1504880035.8,286047006.3,N
1504880055.6,286047006.8,N
1504880075.4,286047001.5,N
1504880095.3,286047004.3,N
1504880115.1,286047004.4,N
1504880116.0,286047004.4,N
1504880135.0,286046998.5,N
1504880135.9,286046998.5,N
1504880155.8,286046993.4,N
1504880175.6,286046994.9,N
1504880195.4,286046993.9,N
1504880215.3,286046998.0,N
1504880235.1,286046994.9,N
1504880236.0,286046994.9,N
1504880255.8,286046997.6,N
1504880275.7,286046993.7,N
1504880295.5,286046994.0,N
1504880315.3,286046994.3,N
1504880335.1,286046998.0,N
1504880355.9,286046999.3,N
1504880375.7,286046993.7,N
1504880395.5,286046996.9,N
1504880415.4,286046994.9,N
1504880435.2,286046996.6,N
1504880455.0,286046996.9,N
1504880455.9,286046996.9,N
1504880475.8,286046995.4,N
1504880495.6,286046995.0,N
1504880515.4,286046996.1,N
1504880535.3,286046999.6,N
1504880555.1,286046998.7,N
1504880575.8,286046999.9,N
1504880595.7,286046996.8,N
1504880615.5,286046999.1,N
1504880635.3,286046996.7,N
1504880655.2,286046997.5,N
1504880675.9,286046998.1,N
1504880695.7,286046999.7,N
1504880715.6,286047001.6,N
1504880735.4,286047001.8,N
1504880755.2,286047001.7,N
1504880775.0,286046997.0,N
1504880776.0,286046997.0,N
1504880795.8,286047001.6,N
1504880815.6,286047002.3,N
1504880835.4,286047001.8,N
1504880855.3,286047001.6,N
1504880875.1,286047001.5,N
1504880895.8,286047001.6,N
1504880915.7,286047004.3,N
1504880935.5,286047001.4,N
1504880955.3,286047004.3,N
1504880975.2,286047001.5,N
1504880995.9,286047002.6,N
1504881015.7,286047004.9,N
1504881035.6,286047006.1,N
1504881055.4,286047005.3,N
1504881075.2,286047001.7,N
1504881095.1,286047005.8,N
1504881096.0,286047005.8,N
1504881115.8,286047003.2,N
1504881135.6,286047003.8,N
1504881155.5,286047001.6,N
1504881175.3,286047002.0,N
1504881195.1,286047001.6,N
1504881215.8,286047002.2,N
1504881235.7,286047004.0,N
1504881255.5,286047001.4,N
1504881275.3,286047000.9,N
1504881295.2,286047002.2,N
1504881315.9,286047002.3,N
1504881335.7,286047001.9,N
1504881355.6,286047000.5,N
1504881375.4,286046996.2,N
1504881395.2,286046996.6,N
1504881415.1,286046996.9,N
1504881416.0,286046996.9,N
1504881435.8,286046999.2,N
1504881455.6,286046998.9,N
1504881475.5,286047001.7,N
1504881495.3,286047004.4,N
1504881515.1,286047000.1,N
1504881535.8,286047002.8,N
1504881555.7,286047002.7,N
1504881575.5,286047001.6,N
1504881595.4,286047001.3,N
1504881615.2,286047005.7,N
1504881635.0,286047005.5,N
1504881635.9,286047005.5,N
1504881655.8,286047007.4,N
1504881675.6,286047003.8,N
1504881695.4,286047001.5,N
1504881715.3,286047005.9,N
1504881735.1,286047002.6,N
1504881736.0,286047002.6,N
1504881755.8,286047003.9,N
1504881775.7,286047000.1,N
1504881795.5,286046998.4,N
1504881815.3,286047004.3,N
1504881835.1,286047003.6,N
1504881855.9,286047002.5,N
1504881875.7,286047002.1,N
1504881895.5,286047002.2,N
1504881915.4,286047000.3,N
1504881935.2,286046999.3,N
1504881955.0,286046995.4,N
1504881955.9,286046995.4,N
1504881975.8,286046997.2,N
1504881995.6,286046999.6,N
1504882015.4,286046994.9,N
1504882035.3,286047000.9,N
1504882055.1,286046997.2,N
1504882056.0,286046997.2,N
1504882075.8,286047000.7,N
1504882095.7,286047000.3,N
1504882115.5,286046998.5,N
1504882135.3,286047004.4,N
1504882155.2,286047000.8,N
1504882175.9,286046996.1,N
1504882195.7,286046993.5,N
1504882215.6,286046994.5,N
1504882235.4,286046994.9,N
1504882255.2,286046995.0,N
1504882275.0,286046998.6,N
1504882276.0,286046998.6,N
1504882295.8,286047000.0,N
1504882315.6,286047001.6,N
1504882335.4,286047002.6,N
1504882355.3,286047002.6,N
1504882375.1,286047000.1,N
1504882395.8,286047001.3,N
1504882415.7,286047001.7,N
1504882435.5,286046999.5,N
1504882455.3,286046993.4,N
1504882475.2,286046996.8,N
1504882495.9,286046996.7,N
1504882515.7,286046997.2,N
1504882535.6,286046997.2,N
1504882555.4,286046997.0,N
1504882575.2,286047002.7,N
1504882595.1,286047000.3,N
1504882596.0,286047000.3,N
1504882615.8,286046998.5,N
1504882635.6,286046997.9,N
1504882655.5,286047000.4,N
1504882675.3,286047001.8,N
1504882695.1,286047003.7,N
1504882715.8,286047000.9,N
1504882735.7,286046997.4,N
1504882755.5,286046997.1,N
1504882775.3,286047002.5,N
1504882795.2,286047002.2,N
